Location: Newark
(48.8656°N, 2.3211°E)
Time: 19:07:03
(UTC+00:00)

Envisat - Pass Details

Date: 08 December 2019
Orbit: 764 x 766 km, 98.1° (Epoch: 28 January)

Event Time Altitude Azimuth Distance (km) Brightness Sun altitude
Rises 05:52:40 0° 22° (NNE) 3,246 6.3 -15.3°
Reaches altitude 10° 05:55:17 10° 34° (NNE) 2,315 5.7 -14.9°
Maximum altitude 05:59:43 29° 94° (E) 1,376 5.1 -14.2°
Drops below altitude 10° 06:04:06 10° 154° (SSE) 2,298 6.1 -13.5°
Sets 06:06:41 0° 165° (SSE) 3,219 6.7 -13.1°
